CST,Max TemperatureF,Mean TemperatureF,Min TemperatureF,Max Dew PointF,MeanDew PointF,Min DewpointF,Max Humidity, Mean Humidity, Min Humidity, Max Sea Level PressureIn, Mean Sea Level PressureIn, Min Sea Level PressureIn, Max VisibilityMiles, Mean VisibilityMiles, Min VisibilityMiles, Max Wind SpeedMPH, Mean Wind SpeedMPH, Max Gust SpeedMPH,PrecipitationIn, CloudCover, Events, WindDirDegrees
2013-3-1,75,70,66,64,56,50,88,65,50,30.04,29.95,29.89,8,6,3,24,13,29,0.00,7,Rain,338
2013-3-2,73,68,64,54,46,36,68,48,27,30.22,30.11,30.02,8,8,7,23,19,30,0.00,5,,328
2013-3-3,73,66,59,50,45,41,72,50,33,30.24,30.16,30.02,8,8,7,24,17,29,0.00,2,,324
2013-3-4,73,62,50,57,48,43,77,60,46,30.23,30.13,30.04,8,8,7,8,5,,0.00,1,,78
2013-3-5,77,64,51,55,50,45,82,63,39,30.13,30.07,30.02,8,8,7,10,3,22,0.00,2,,121
2013-3-6,77,65,53,57,52,46,82,60,39,30.21,30.13,30.05,8,8,7,16,5,,0.00,2,,32
2013-3-7,77,72,66,61,56,50,78,62,47,30.19,30.14,30.09,8,8,7,14,8,,0.00,1,,31
2013-3-8,75,63,51,55,51,48,94,60,41,30.19,30.11,30.06,8,7,7,14,4,,0.00,3,,77
2013-3-9,78,68,57,59,53,48,82,57,39,30.14,30.05,29.96,8,8,7,14,5,24,0.00,3,,103
2013-3-10,78,70,62,66,58,52,78,60,47,29.99,29.92,29.86,8,7,7,18,10,29,0.00,3,,117
2013-3-11,80,76,71,68,66,64,83,73,58,29.96,29.89,29.84,8,7,7,16,11,24,0.00,5,,130
2013-3-12,77,72,68,70,64,59,100,79,68,30.08,29.98,29.88,7,6,1,15,6,,4.40,6,Rain,4
2013-3-13,75,72,68,73,58,52,94,65,47,30.17,30.09,30.02,8,8,7,17,12,,0.00,5,,14
2013-3-14,77,72,68,61,57,55,68,61,53,30.22,30.15,30.09,8,7,7,20,10,,0.00,4,,47
2013-3-15,73,66,60,59,56,54,88,67,53,30.23,30.14,30.07,8,8,7,17,10,23,0.00,3,,66
2013-3-16,78,69,60,64,60,54,88,74,50,30.12,30.04,29.97,8,8,7,17,6,23,0.00,3,,110
2013-3-17,78,69,60,70,67,61,100,85,69,30.04,29.96,29.88,8,7,7,17,7,,0.00,4,,135
2013-3-18,82,76,71,73,71,70,100,87,66,29.99,29.92,29.83,8,7,7,18,9,24,0.15,4,,142
2013-3-19,82,76,69,72,70,68,100,83,62,30.01,29.92,29.87,8,8,7,15,8,,0.00,3,,131
2013-3-20,82,74,66,70,69,66,100,84,65,29.95,29.89,29.83,8,8,7,12,5,,0.00,3,,139
2013-3-21,84,74,64,72,69,64,100,85,62,29.95,29.87,29.80,8,8,7,8,3,,0.00,3,,152
2013-3-22,80,76,71,72,70,68,94,83,70,29.92,29.86,29.80,8,8,7,17,9,,0.00,3,,153
2013-3-23,82,78,73,72,71,70,94,83,70,29.92,29.82,29.75,8,8,7,23,12,23,0.00,3,,148
2013-3-24,82,78,73,73,73,70,100,86,74,29.83,29.75,29.67,8,7,7,14,8,20,0.00,4,,152
2013-3-25,82,76,69,75,72,68,100,92,74,30.01,29.87,29.75,7,7,6,15,5,24,0.35,8,Rain,18
2013-3-26,73,70,66,68,62,55,100,78,64,30.22,30.10,29.99,7,7,6,18,14,25,0.00,7,Rain,31
2013-3-27,75,70,64,63,60,57,94,76,57,30.25,30.18,30.12,7,7,2,17,9,23,0.35,6,Rain,26
2013-3-28,73,65,57,61,57,55,94,70,57,30.23,30.16,30.09,8,8,7,17,7,21,0.00,3,,63
2013-3-29,77,68,59,64,60,57,94,75,65,30.21,30.13,30.07,8,8,7,17,6,24,0.00,4,,78
2013-3-30,78,66,55,64,59,55,100,73,47,30.15,30.08,30.00,8,8,7,15,5,28,0.00,2,,110
2013-3-31,80,72,64,70,68,64,100,82,65,30.08,29.99,29.90,8,8,7,17,9,23,0.00,3,,126